[[{"header":{"parameterUnit":"m.s-1","parameterCategory":1,"la1":30.2991,"la2":30.254,"lo1":-89.0895,"lo2":-89.0444,"dy":0.0017,"dx":0.0017,"nx":28,"ny":28,"refTime":"2025-03-30T03:00:00:Z","depth":0,"parameterNumber":2,"parameterNumberName":"U-component_of_WINDS"},"data":[0,0,0,0,0,0,0,0,0,0,0,0,0,0,0,0,0,0,0,0,0,0,0,0,0,0,0,0,0,0,0,0,0,0,0,0,0,0,0,0,0,0,0,0,0,0,0,0,0,0,0,0,0,0,0,0,0,0,-3.951,-3.9511,0,-3.9639,-3.964,-3.9642,-3.9667,-3.9666,-3.9665,-3.9664,-3.9794,-3.9798,-3.9802,0,0,0,0,0,0,0,0,0,0,0,0,0,-3.9284,-3.9288,-3.951,-3.9511,-3.9513,-3.9638,-3.964,-3.9642,-3.9667,-3.9666,-3.9665,-3.9664,-3.9792,-3.9797,-3.9803,0,0,0,0,0,0,0,0,0,0,0,0,0,-3.9394,-3.929,-3.951,-3.9541,-3.9545,-3.9638,-3.964,-3.9642,-3.9668,-3.9666,-3.9665,-3.9663,-3.979,-3.9797,-3.9803,-3.9873,0,0,-3.9823,-3.9826,0,0,0,0,0,0,0,0,-3.9388,-3.9403,-3.9535,-3.9539,-3.9544,-3.9635,-3.9608,-3.972,-3.9668,-3.9621,-3.9664,-3.9663,-3.9742,-3.9752,-3.978,-3.9879,-3.9885,-3.9824,-3.9828,-3.9831,-3.9832,0,0,0,0,0,0,0,-3.938,-3.9397,-3.9561,-3.9537,-3.9542,-3.9548,-3.9562,-3.9629,-3.9688,-3.9625,-3.9627,-3.9642,-3.9744,-3.9773,-3.9783,-3.9887,-3.9824,-3.9829,-3.9834,-3.9836,-4.005,-4.0052,0,0,0,0,0,0,-3.9368,-3.9391,-3.9557,-3.9565,-3.9461,-3.9553,-3.9569,-3.9607,-3.9688,-3.9698,-3.9643,-3.9643,-3.9763,-3.9775,-3.9788,-3.9874,-3.9831,-3.9837,-3.984,-4.0048,-4.005,-4.0052,0,0,0,0,0,0,-3.9363,-3.9382,-3.9551,-3.9478,-3.95,-3.9559,-3.9602,-3.9611,-3.964,-3.9701,-3.9712,-3.9662,-3.9762,-3.9778,-3.9852,-3.9879,-3.984,-3.9846,-4.0046,-4.0049,-4.0051,-4.0048,0,0,0,0,0,0,-3.9356,-3.938,-3.9408,-3.9479,-3.9504,-3.9614,-3.9603,-3.9614,-3.9651,-3.9652,-3.9722,-3.9732,-3.9762,-3.9842,-3.9858,-3.9887,-3.9851,-4.0044,-4.0047,-4.005,-4.0046,-4.005,-4.0054,0,0,0,0,0,-3.9348,-3.9401,-3.9409,-3.9429,-3.954,-3.9616,-3.963,-3.9664,-3.9654,-3.9681,-3.9721,-3.973,-3.9874,-3.9849,-3.9868,-3.9899,-4.0042,-4.0046,-4.005,-4.0044,-4.0049,-4.0054,0,0,0,0,0,0,-3.9331,-3.9411,-3.9421,-3.9499,-3.955,-3.962,-3.9656,-3.9669,-3.9724,-3.9722,-3.9761,-3.9777,-3.9848,-3.9881,-3.9853,-3.9971,-3.9957,-3.9965,-3.9946,-3.9952,-3.9956,-3.9945,-3.9856,0,0,0,0,0,-3.9337,-3.9392,-3.9459,-3.9521,-3.9547,-3.9597,-3.9631,-3.9653,-3.9708,-3.9729,-3.9774,-3.9826,-3.9883,-3.992,-3.9976,-4.0052,-4.0067,-4.0082,-4.0086,-4.0089,-4.0095,-4.0137,-4.0144,-4.0065,-4.0065,-4.0065,0,0,-3.9348,-3.9399,-3.9431,-3.9519,-3.9562,-3.9617,-3.9615,-3.9674,-3.9715,-3.9738,-3.981,-3.9845,-3.9906,-3.9981,-4.0016,-4.001,-4.0121,-4.0094,-4.0096,-4.01,-4.0142,-4.0149,-4.0156,-4.0068,-4.0067,-4.0067,0,0,-3.9397,-3.9442,-3.9498,-3.9541,-3.9606,-3.9639,-3.9653,-3.9721,-3.9745,-3.9818,-3.9836,-3.9886,-3.9984,-4.0026,-4.006,-4.0126,-4.0136,-4.0144,-4.0163,-4.0204,-4.021,-4.0216,-4.0238,-4.0246,-4.015,-4.015,-4.015,0,-3.9403,-3.9488,-3.9525,-3.9584,-3.9622,-3.9646,-3.9703,-3.9743,-3.9822,-3.9847,-3.9841,-3.9964,-4.0006,-4.0091,-4.0107,-4.0135,-4.0151,-4.0135,-4.0206,-4.0213,-4.0218,-4.024,-4.0249,-4.015,-4.015,-4.015,-4.015,0,-3.9492,-3.955,-3.9588,-3.9665,-3.9707,-3.9765,-3.981,-3.9848,-3.9867,-3.9901,-3.9975,-4.0027,-4.0094,-4.0116,-4.0135,-4.0203,-4.0198,-4.0199,-4.0185,-4.0226,-4.0247,-4.0255,-4.015,-4.015,-4.015,-4.015,0,0,-3.9532,-3.9629,-3.9642,-3.9677,-3.9751,-3.9797,-3.9855,-3.9921,-3.9953,-4.0007,-4.0056,-4.0139,-4.014,-4.0179,-4.0203,-4.0239,-4.0286,-4.0235,-4.0237,-4.0241,-4.0364,-4.0362,-4.0371,-4.0294,-4.0296,-4.0298,-4.0359,0,-3.9589,-3.9694,-3.973,-3.9817,-3.9871,-3.9896,-3.9947,-3.9997,-4.003,-4.0081,-4.0118,-4.0175,-4.0173,-4.0196,-4.0233,-4.0273,-4.0311,-4.0269,-4.0339,-4.0341,-4.0321,-4.0382,-4.038,-4.0435,-4.0367,-4.0369,-4.037,0,-3.9669,-3.9725,-3.9818,-3.9884,-3.9909,-3.9954,-4.0017,-4.0065,-4.0123,-4.0145,-4.0188,-4.021,-4.0271,-4.0256,-4.034,-4.0311,-4.0342,-4.0366,-4.0369,-4.0375,-4.0356,-4.0388,-4.0454,-4.0461,-4.0383,-4.0382,-4.0381,0,-3.9687,-3.9786,-3.9854,-3.9884,-3.9964,-3.9994,-4.0029,-4.0085,-4.0123,-4.0178,-4.0203,-4.0264,-4.0297,-4.0344,-4.0382,-4.0367,-4.0462,-4.045,-4.0481,-4.048,-4.0498,-4.0496,-4.0567,-4.0521,-4.0521,-4.0521,-4.0521,0,-3.9746,-3.9802,-3.9864,-3.9905,-3.9968,-4.0008,-4.0069,-4.0105,-4.0155,-4.0203,-4.0229,-4.0274,-4.0321,-4.0372,-4.0402,-4.0467,-4.0482,-4.05,-4.0507,-4.0497,-4.0495,-4.0517,-4.0513,-4.0523,-4.0523,-4.0522,-4.0522,0,-3.9777,-3.9821,-3.9896,-3.9966,-3.9985,-4.0028,-4.0087,-4.0128,-4.0163,-4.0224,-4.0241,-4.0295,-4.0357,-4.0399,-4.0478,-4.0498,-4.0568,-4.0575,-4.0548,-4.0551,-4.0579,-4.0575,-4.0665,-4.0679,-4.0625,-4.0625,-4.0626,0,-3.981,-3.9854,-3.9928,-3.9963,-3.9998,-4.0053,-4.0092,-4.0134,-4.0172,-4.0241,-4.0274,-4.0337,-4.039,-4.0487,-4.0533,-4.0593,-4.0601,-4.0629,-4.061,-4.0598,-4.06,-4.0596,-4.06,-4.0631,-4.0631,-4.0631,-4.0632,0,-3.9865,-3.9885,-3.994,-4.0002,-4.0048,-4.0099,-4.015,-4.0177,-4.0227,-4.0269,-4.0333,-4.0374,-4.0455,-4.0517,-4.0581,-4.0617,-4.0632,-4.0637,-4.0647,-4.0637,-4.0619,-4.0627,-4.0554,-4.0635,-4.0634,-4.0634,-4.0634,-4.0634,-3.9898,-3.9937,-3.9996,-4.0056,-4.0099,-4.0146,-4.0188,-4.0228,-4.0282,-4.0351,-4.0373,-4.0438,-4.0495,-4.0584,-4.062,-4.0671,-4.0669,-4.0684,-4.0687,-4.069,-4.0689,-4.0612,-4.0683,-4.0683,-4.0683,-4.0683,-4.0683,0,-3.9953,-3.9992,-4.0047,-4.0118,-4.0165,-4.0177,-4.0234,-4.0272,-4.033,-4.0382,-4.0433,-4.0506,-4.0566,-4.0618,-4.068,-4.0712,-4.072,-4.0726,-4.0724,-4.0731,-4.0688,-4.0672,-4.0718,-4.0718,-4.0718,-4.0718,-4.0718,-4.0718,-3.9987,-4.0054,-4.008,-4.0169,-4.0207,-4.0272,-4.0304,-4.0347,-4.0389,-4.0469,-4.0519,-4.0553,-4.0604,-4.0671,-4.0727,-4.074,-4.0761,-4.0765,-4.078,-4.0739,-4.0734,-4.073,-4.0716,-4.077,-4.077,-4.0819,-4.082,-4.082]},{"header":{"parameterUnit":"m.s-1","parameterCategory":1,"la1":30.2991,"la2":30.254,"lo1":-89.0895,"lo2":-89.0444,"dy":0.0017,"dx":0.0017,"nx":28,"ny":28,"refTime":"2025-03-30T03:00:00:Z","depth":0,"parameterNumber":3,"parameterNumberName":"V-component_of_WINDS"},"data":[0,0,0,0,0,0,0,0,0,0,0,0,0,0,0,0,0,0,0,0,0,0,0,0,0,0,0,0,0,0,0,0,0,0,0,0,0,0,0,0,0,0,0,0,0,0,0,0,0,0,0,0,0,0,0,0,0,0,5.2203,5.2204,0,5.2294,5.2295,5.2296,5.2315,5.2314,5.2313,5.2312,5.2404,5.2407,5.241,0,0,0,0,0,0,0,0,0,0,0,0,0,5.2043,5.2046,5.2202,5.2204,5.2205,5.2294,5.2295,5.2297,5.2315,5.2314,5.2313,5.2312,5.2403,5.2406,5.241,0,0,0,0,0,0,0,0,0,0,0,0,0,5.2121,5.2047,5.2202,5.2225,5.2228,5.2294,5.2295,5.2297,5.2315,5.2314,5.2313,5.2312,5.2401,5.2406,5.241,5.246,0,0,5.2425,5.2427,0,0,0,0,0,0,0,0,5.2117,5.2127,5.222,5.2223,5.2227,5.2292,5.2273,5.2352,5.2315,5.2282,5.2312,5.2311,5.2367,5.2374,5.2394,5.2464,5.2468,5.2425,5.2428,5.243,5.2431,0,0,0,0,0,0,0,5.2111,5.2123,5.2239,5.2221,5.2225,5.223,5.224,5.2288,5.2329,5.2284,5.2286,5.2297,5.2369,5.2389,5.2396,5.247,5.2425,5.2429,5.2432,5.2434,5.2589,5.259,0,0,0,0,0,0,5.2102,5.2119,5.2236,5.2241,5.2168,5.2234,5.2245,5.2272,5.2329,5.2336,5.2298,5.2297,5.2382,5.2391,5.2399,5.2464,5.243,5.2434,5.2437,5.2588,5.2589,5.2591,0,0,0,0,0,0,5.2099,5.2112,5.2232,5.2181,5.2196,5.2238,5.2268,5.2274,5.2295,5.2339,5.2346,5.2311,5.2382,5.2393,5.2446,5.2467,5.2436,5.244,5.2586,5.2588,5.259,5.259,0,0,0,0,0,0,5.2094,5.2111,5.213,5.2181,5.2199,5.2277,5.2269,5.2277,5.2303,5.2304,5.2353,5.236,5.2382,5.2439,5.2451,5.2473,5.2444,5.2585,5.2587,5.259,5.2589,5.2592,5.2595,0,0,0,0,0,5.2088,5.2125,5.2131,5.2145,5.2224,5.2278,5.2288,5.2313,5.2305,5.2325,5.2353,5.2359,5.2463,5.2444,5.2457,5.2481,5.2583,5.2586,5.2589,5.2587,5.2592,5.2595,0,0,0,0,0,0,5.2074,5.2132,5.2139,5.2193,5.2231,5.2281,5.2306,5.2316,5.2355,5.2354,5.2382,5.2393,5.2445,5.2468,5.2446,5.2534,5.2523,5.2528,5.2517,5.2521,5.2524,5.2517,5.2448,0,0,0,0,0,5.2077,5.2117,5.2166,5.2209,5.2228,5.2264,5.2288,5.2305,5.2344,5.2359,5.2392,5.2429,5.2471,5.2497,5.2538,5.2593,5.2605,5.2616,5.2619,5.2622,5.2626,5.266,5.2666,5.2601,5.2601,5.2601,0,0,5.2084,5.2121,5.2144,5.2207,5.2238,5.2279,5.2277,5.2319,5.235,5.2366,5.2418,5.2444,5.2488,5.2543,5.2568,5.2564,5.2647,5.2626,5.2627,5.263,5.2663,5.267,5.2675,5.2603,5.2603,5.2602,0,0,5.2117,5.2149,5.219,5.2222,5.2269,5.2294,5.2304,5.2354,5.2372,5.2425,5.2439,5.2476,5.2546,5.2578,5.2603,5.2653,5.266,5.2666,5.2682,5.2714,5.272,5.2724,5.2744,5.275,5.267,5.267,5.267,0,5.2119,5.2182,5.2209,5.2253,5.2281,5.2299,5.2341,5.2371,5.2428,5.2448,5.2442,5.2533,5.2564,5.2628,5.2641,5.266,5.2673,5.2659,5.2717,5.2722,5.2727,5.2745,5.2752,5.267,5.267,5.267,5.267,0,5.2183,5.2226,5.2254,5.2312,5.2343,5.2385,5.242,5.2449,5.2463,5.2488,5.2544,5.2583,5.2632,5.2649,5.2662,5.2716,5.2712,5.2711,5.27,5.2733,5.2751,5.2758,5.2671,5.2671,5.2671,5.2671,0,0,5.2207,5.2283,5.2292,5.232,5.2376,5.241,5.2454,5.2505,5.2529,5.257,5.2608,5.2669,5.267,5.2699,5.2717,5.2745,5.2785,5.2741,5.2743,5.2749,5.2848,5.2849,5.2856,5.279,5.2792,5.2793,5.2845,0,5.2248,5.2328,5.2356,5.2422,5.2464,5.2484,5.2523,5.2562,5.2588,5.2627,5.2655,5.2699,5.2696,5.2714,5.2743,5.2774,5.2805,5.277,5.2827,5.2828,5.2815,5.2866,5.2865,5.2912,5.2852,5.2853,5.2854,0,5.2306,5.2349,5.242,5.2474,5.2493,5.2527,5.2577,5.2614,5.266,5.2677,5.2711,5.2727,5.2776,5.2763,5.283,5.2806,5.2831,5.285,5.2853,5.2859,5.2843,5.2874,5.2928,5.2935,5.2865,5.2865,5.2864,0,5.2318,5.2394,5.2447,5.247,5.2534,5.2558,5.2586,5.263,5.266,5.2704,5.2724,5.2772,5.2798,5.2836,5.2865,5.2853,5.2931,5.2919,5.2946,5.2946,5.2961,5.296,5.3021,5.2977,5.2977,5.2977,5.2976,0,5.2361,5.2403,5.2454,5.2487,5.2537,5.2569,5.2617,5.2646,5.2686,5.2725,5.2745,5.2781,5.2818,5.2859,5.2883,5.2936,5.2947,5.2963,5.2969,5.2961,5.296,5.2978,5.2975,5.2979,5.2978,5.2978,5.2977,0,5.2382,5.2417,5.2477,5.2534,5.2549,5.2583,5.2632,5.2665,5.2693,5.2743,5.2756,5.28,5.285,5.2884,5.2947,5.2963,5.3022,5.3026,5.3007,5.3009,5.3035,5.3032,5.311,5.3123,5.307,5.307,5.307,0,5.2407,5.2441,5.2502,5.2531,5.2559,5.2604,5.2635,5.2669,5.2701,5.2757,5.2784,5.2836,5.2879,5.2959,5.2996,5.3046,5.3052,5.3076,5.3059,5.3052,5.3054,5.3052,5.3056,5.3078,5.3079,5.3079,5.3079,0,5.2448,5.2465,5.2509,5.2561,5.2599,5.2641,5.2683,5.2705,5.2747,5.2782,5.2834,5.2868,5.2935,5.2987,5.304,5.3069,5.3082,5.3085,5.3094,5.3087,5.3074,5.3083,5.3014,5.3082,5.3082,5.3082,5.3082,5.3082,5.2472,5.2505,5.2554,5.2604,5.264,5.268,5.2715,5.2749,5.2793,5.2851,5.2869,5.2924,5.2971,5.3045,5.3075,5.3119,5.3117,5.3129,5.3133,5.3135,5.3136,5.3068,5.3129,5.3129,5.3129,5.3129,5.3129,0,5.2516,5.2549,5.2595,5.2655,5.2695,5.2705,5.2754,5.2786,5.2835,5.2879,5.2922,5.2984,5.3035,5.3078,5.3131,5.3158,5.3166,5.3171,5.317,5.3177,5.3135,5.3122,5.3165,5.3165,5.3165,5.3165,5.3165,5.3165,5.2543,5.2599,5.2622,5.2697,5.2731,5.2786,5.2813,5.285,5.2886,5.2955,5.2998,5.3026,5.307,5.3128,5.3176,5.3187,5.3206,5.321,5.3223,5.3183,5.3179,5.3175,5.3164,5.3214,5.3214,5.3262,5.3262,5.3262]}]]